Location: Morisset
(33.1080°S, 151.4871°E)
Time: 08:00:51
(UTC+00:00)

CZ-2D R/B - Pass Details

Date: 29 October 2020
Orbit: 792 x 845 km, 98.7° (Epoch: 27 November)

Event Time Altitude Azimuth Distance (km) Brightness Sun altitude
Exits shadow 15:11:18 16° 205° (SSW) 2,060 4.5 -38.1°
Drops below altitude 10° 15:12:26 10° 202° (SSW) 2,488 5.0 -38.0°
Sets 15:14:53 0° 197° (SSW) 3,433 5.9 -37.7°
